Showing default

COSMOS 2426 (GLONASS), 29671

Orbit data source: Space-Track

COSMOS 2426 (GLONASS), 29671 is a Commonwealth of Independent States-origin payload satellite in MEO that was launched on Mon, 25 Dec 2006 UTC via a PROTON-K/DM-2 launch vehicle from the Tyuratam Missile And Space Complex (TTMTR). Payload-class satellites include a variety of spacecraft equipped with specific instruments for various scientific and technological missions. These include communications satellites like Starlink; space stations such as the ISS; scientific satellites like the Hubble; Earth observation satellites from companies like Planet Labs, Umbra, and HawkEye 360; GPS; miniature CubeSats for education and research; and military/defense satellites.

Loading next visibility...
Identifier
29671, 2006-062B
Orbit
MEO
Last TLE update
14 hours ago
Origin
Manufacturer
Resehetnev ISS
Mission
Non-operational Defense Navigation
Bus & Motor
URAGAN, Unknown motor
Mass
1,450 kg wet, ~1,200 kg dry
Launch date (UTC)
2006-12-25 (19 years ago)
Launch vehicle
PROTON-K/DM-2
Launch site
Tyuratam Missile And Space Complex (TTMTR)
Object type
Payload
Rocket body
Debris
Shape & HBR
Cyl + 1 Arm + 2 Pan, 7.8 m
Radar Cross Section
8.145 m², Large (>1 m²)

Expand to show TLE details & history

TLE from 14 hours ago
0 COSMOS 2426 (GLONASS)
1 29671U 06062B   25183.29489318  .00000073  00000-0  00000-0 0  9992
2 29671  64.6985 206.1632 0021661 181.3625 178.3687  2.12963577144097
Epoch: 2025-07-02T07:04Z
TLE epoch observation values (Epoch: 2025-07-02T07:04:38.77Z)
Latitude
-0.2837°
Longitude
179.29443°
Altitude
19,196.785 km
Speed
3.944 km/s
True Right ascension
13h 44m 08s
True Declination
0° 16' 60"
Sunlit
Object was in daylight at epoch
Visualization orbit readout
Latitude
64.71485°
Longitude
-90.48325°
Altitude
19,152.695 km
Speed
3.953 km/s
Apparent Right ascension
20h 06m 39s
Apparent Declination
50° 30' 11"
Sunlit
Object is in daylight
Visualization observer readout
Local Sidereal Time
08:55:07
Azimuth
7.674° NNE
Elevation
1.042°
Doppler factor
1
Orbital elements
Apogee altitude
19,195.841 km
Perigee altitude
19,085.289 km
Semi-major axis
25,518.702 km
Eccentricity
0.00217
Inclination
64.6985°
RAAN
206.1632°
Arg. of periapsis
181.3625°
True anomaly
Unknown
Mean anomaly
178.3687°
Eccentric anomaly
Unknown
Mean motion
0.53242 °/min
Orbital period
676.16 mins
BSTAR
0
Loading maneuver chart data...
Loading SW <> Apogee altitude chart data...
Loading historical data...
Loading historical data...
Loading historical data...
Loading historical data...
Loading historical data...
Loading historical data...
Loading historical data...

COSMOS 2426 (GLONASS) Visibility forecast

Observer location: undefined°, undefined°

Span
Click to sort rows by Start time (UTC) header in descending order
Start Az.
Max El. time (UTC)
Max El. Az.
Max El.
End time (UTC)
End Az.
372 mins2025-07-03 05:31:57.800Z243.375° WSW2025-07-03 08:56:57.800Z23.788° NE40.583°2025-07-03 11:43:57.800Z136.417° SSE
|